Powrót do katalogu

ARIANE 2 DEB

LostGTO
NORAD 42483·DEBRIS·🇫🇷 France

Wystrzelony Jan 27, 1989 z Guiana Space Centre

Loading…

TLE

NieaktualneSource: Space-Track

Epoka: Feb 26, 2025, 21:29 UTC

1 42483U 89006CK  25057.89583331 -.00000022  00000-0  00000+0 0  9997
2 42483   9.0096  10.8294 6990544 225.9852  49.7490  2.22807501130768

Śledź ARIANE 2 DEB w czasie rzeczywistym z AllMySat

Download on the App Store